Flag Weather past 2 weeks in Tórshavn, Faroe Islands, Faroe Islands

Now
50 °F

Fog.


Feels Like: 45 °F
Forecast: N/A
Wind: 15 mph from South

Location: Soervaag / Vagar

Current Time: Oct 31, 2014 at 10:25:54 PM

Latest Report: Oct 31, 2014 at 9:50 PM


Visibility: 0 mi

Pressure: 29.36 "Hg

Humidity: 100%

Dew point: 50 °F

Location of TórshavnLocation

Historic Weather in Tórshavn — Graph

°F

Tórshavn temperature yesterday

Maximum temperature yesterday: 46 °F (at 11:50 AM)
Minimum temperature yesterday: 39 °F (at 1:20 AM)
Average temperature yesterday: 45 °F

Past Weeks' High & Low Weather Summary

 TemperatureHumidityPressure
High54 °F (Oct 18, 8:50 AM)100% (Oct 18, 1:20 AM)30.07 "Hg (Oct 18, 1:20 AM)
Low36 °F (Oct 26, 11:50 PM)53% (Oct 22, 1:20 AM)28.77 "Hg (Oct 26, 6:50 AM)
Average45 °F85%29.37 "Hg
* Reported Oct 16 10:20 PM — Oct 31 9:20 PM, Tórshavn, Weather by CustomWeather, © 2014

Note: Actual official high and low records may vary slightly from our data, if they occured in-between our weather recording intervals... More about our weather records

Advertising

Tórshavn weather history for previous 24 hours

 ConditionsComfort  
Time TempWeatherWind HumidityBarometerVisibility
9:20 PM
Oct 31
50 °FLight rain. Fog.17 mph100%29.36 "Hg1 mi
8:50 PM50 °FFog.15 mph100%29.36 "Hg1 mi
8:20 PM50 °FFog.12 mph100%29.39 "Hg1 mi
7:50 PM52 °FLow clouds.13 mph100%29.39 "HgN/A
7:20 PM52 °FMostly cloudy.16 mph100%29.39 "HgN/A
6:50 PM52 °FDrizzle. Mostly cloudy.15 mph100%29.39 "Hg6 mi
6:20 PM52 °FDrizzle. Fog.10 mph100%29.39 "Hg1 mi
5:50 PM52 °FLight rain. Low clouds.12 mph100%29.39 "Hg5 mi
5:20 PM52 °FLight rain. Low clouds.12 mph100%29.39 "Hg4 mi
4:50 PM52 °FLight rain. Low clouds.12 mph100%29.39 "Hg4 mi
4:20 PM52 °FSprinkles. Low clouds.13 mph100%29.39 "Hg3 mi
3:50 PM52 °FDrizzle. Fog.13 mph100%29.42 "Hg1 mi
3:20 PM52 °FLight rain. Low clouds.16 mph100%29.42 "Hg3 mi
2:50 PM54 °FSprinkles. Low clouds.21 mph94%29.42 "Hg2 mi
2:20 PM54 °FSprinkles. Fog.20 mph100%29.42 "Hg2 mi
1:50 PM54 °FLight rain. Low clouds.17 mph100%29.45 "Hg3 mi
1:20 PM52 °FRain. Low clouds.14 mph100%29.45 "Hg1 mi
12:50 PM52 °FLight rain. Mostly cloudy.15 mph100%29.45 "Hg2 mi
12:20 PM52 °FLight rain. Low clouds.17 mph100%29.47 "Hg2 mi
11:50 AM52 °FRain. Low clouds.20 mph100%29.47 "Hg2 mi
11:20 AM52 °FRain. Low clouds.20 mph94%29.50 "Hg1 mi
10:50 AM50 °FRain. Low clouds.23 mph100%29.50 "Hg2 mi
10:20 AM50 °FRain. Low clouds.25 mph100%29.50 "Hg2 mi
9:50 AM50 °FRain. Low clouds.26 mph100%29.53 "Hg2 mi
9:20 AM50 °FRain. Low clouds.28 mph100%29.53 "Hg2 mi
8:50 AM50 °FRain showers. Low clouds.30 mph100%29.53 "Hg2 mi
8:20 AM50 °FLight rain. Low clouds.33 mph94%29.53 "HgN/A
7:50 AM50 °FLight rain. Low clouds.29 mph94%29.53 "Hg5 mi
7:20 AM50 °FRain. Low clouds.29 mph94%29.56 "Hg4 mi
6:50 AM50 °FRain. Low clouds.28 mph94%29.59 "Hg4 mi
6:20 AM50 °FRain. Low clouds.30 mph94%29.59 "Hg4 mi
5:50 AM48 °FLight rain. Low clouds.28 mph100%29.62 "Hg6 mi
5:20 AM48 °FRain. Low clouds.28 mph100%29.62 "Hg3 mi
4:50 AM48 °FRain. Overcast.30 mph94%29.65 "Hg2 mi
4:20 AM48 °FRain. Overcast.29 mph94%29.65 "Hg3 mi
3:50 AM48 °FRain. Overcast.30 mph94%29.68 "Hg3 mi
3:20 AM48 °FRain. Overcast.33 mph94%29.68 "Hg3 mi
2:50 AM48 °FLight rain. Overcast.31 mph94%29.71 "Hg4 mi
2:20 AM48 °FLight rain. Overcast.32 mph94%29.71 "Hg5 mi
1:50 AM48 °FLight rain. Overcast.31 mph94%29.74 "Hg4 mi
1:20 AM46 °FLight rain. Low clouds.30 mph100%29.74 "Hg4 mi
12:50 AM46 °FSprinkles. Low clouds.30 mph100%29.77 "Hg3 mi
12:20 AM46 °FSprinkles. Low clouds.31 mph100%29.80 "Hg3 mi
11:50 PM
Oct 30
46 °FSprinkles. Low clouds.30 mph93%29.80 "HgN/A
11:20 PM46 °FLight rain. Low clouds.30 mph93%29.80 "HgN/A
10:50 PM46 °FSprinkles. Overcast.28 mph93%29.80 "Hg6 mi
10:20 PM46 °FSprinkles. Overcast.29 mph93%29.83 "Hg4 mi
Weather by CustomWeather, © 2014

See weather overviewHow to use our weather pages